Weather History for West Palm Beach, FL

Change the Weather History Date:

Sunday, March 4, 2012

  Actual Average Record
Temperature  
Mean Temperature 68 °F 69 °F  
Max Temperature 81 °F 78 °F 92 °F (2003)
Min Temperature 54 °F 61 °F 37 °F (1927)
Degree Days  
Heating Degree Days 0 1  
Month to date heating degree days 0 4  
Since 1 July heating degree days 109 209  
Cooling Degree Days 3 6  
Month to date cooling degree days 36 22  
Year to date cooling degree days 352 257  
Growing Degree Days 17 (Base 50)    
Moisture  
Dew Point 57 °F    
Average Humidity 64    
Maximum Humidity 100    
Minimum Humidity 28    
Precipitation  
Precipitation 0.09 in 0.13 in 0.96 in (1948)
Month to date precipitation 0.09 0.50  
Year to date precipitation 4.29 6.45  
Snow  
Snow 0.00 in - - ()
Month to date snowfall 0.0  
Since 1 July snowfall 0.0  
Snow Depth 0.00 in    
Sea Level Pressure  
Sea Level Pressure 29.97 in    
Wind  
Wind Speed 14 mph (West)    
Max Wind Speed 33 mph    
Max Gust Speed 41 mph    
Visibility 8 miles    
Events Rain    
T = Trace of Precipitation, MM = Missing Value Source: NWS Daily Summary

Daily Weather History Graph

Daily Weather History Graph

Search for Another Location

Airport:

Trip Planner

Search our weather history database for the weather conditions in past years. The results will help you decide how hot, cold, wet, or windy it might be!

Date:

Astronomy

Mar. 04, 2012 Rise Set
Actual Time 6:40 AM EST 6:23 PM EST
Civil Twilight 6:17 AM EST 6:46 PM EST
Nautical Twilight 5:50 AM EST 7:13 PM EST
Astronomical Twilight 5:23 AM EST 7:40 PM EST
Moon 2:51 PM EST (3/4) 3:40 AM EST (3/4)
Length of Visible Light 12h 29m
Length of Day
11h 42m
Waxing Gibbous, 83% of the Moon is Illuminated
Mar 4
Waxing Gibbous
Mar 8
Full
Mar 14
Last Quarter
Mar 22
New
Mar 30
First Quarter

Hourly Weather History & Observations

Time (EST) Temp. Heat Index Dew Point Humidity Pressure Visibility Wind Dir Wind Speed Gust Speed Precip Events Conditions
12:53 AM 75.0 °F - 71.1 °F 87% 29.86 in 10.0 mi South 16.1 mph - N/A   Scattered Clouds
1:53 AM 75.0 °F - 71.1 °F 87% 29.85 in 10.0 mi South 15.0 mph - N/A   Partly Cloudy
2:53 AM 75.0 °F - 71.1 °F 87% 29.84 in 10.0 mi SSW 11.5 mph - N/A   Mostly Cloudy
3:53 AM 75.0 °F - 70.0 °F 84% 29.83 in 10.0 mi South 12.7 mph - N/A   Scattered Clouds
4:53 AM 75.0 °F - 71.1 °F 87% 29.83 in 10.0 mi SSW 13.8 mph 23.0 mph N/A   Partly Cloudy
5:53 AM 75.0 °F - 71.1 °F 87% 29.84 in 10.0 mi SSW 15.0 mph 26.5 mph N/A   Partly Cloudy
6:53 AM 75.0 °F - 71.1 °F 87% 29.84 in 10.0 mi SSW 20.7 mph 26.5 mph N/A   Mostly Cloudy
7:39 AM 75.2 °F - 71.6 °F 89% 29.85 in 10.0 mi SSW 19.6 mph 25.3 mph N/A   Mostly Cloudy
7:53 AM 77.0 °F - 71.1 °F 82% 29.85 in 10.0 mi SSW 21.9 mph 31.1 mph N/A   Mostly Cloudy
8:53 AM 80.1 °F 83.6 °F 71.1 °F 74% 29.86 in 10.0 mi SSW 21.9 mph 38.0 mph N/A   Mostly Cloudy
9:53 AM 79.0 °F - 71.1 °F 77% 29.88 in 7.0 mi SW 19.6 mph 31.1 mph N/A   Overcast
10:09 AM 73.4 °F - 69.8 °F 88% 29.93 in 1.0 mi WNW 26.5 mph 41.4 mph 0.00 in Rain Heavy Rain
10:12 AM 69.8 °F - 66.2 °F 88% 29.93 in 2.0 mi West 27.6 mph 41.4 mph 0.07 in Rain Heavy Rain
10:20 AM 69.8 °F - 66.2 °F 88% 29.94 in 2.0 mi WNW 26.5 mph 34.5 mph 0.08 in Rain Rain
10:32 AM 66.2 °F - 64.4 °F 94% 29.96 in 2.0 mi WNW 25.3 mph 40.3 mph 0.09 in Rain Rain
10:42 AM 66.2 °F - 64.4 °F 94% 29.97 in 4.0 mi WNW 23.0 mph 34.5 mph 0.09 in Rain Light Rain
10:53 AM 66.9 °F - 66.0 °F 97% 29.97 in 7.0 mi WNW 20.7 mph 31.1 mph 0.09 in   Overcast
11:53 AM 64.9 °F - 63.0 °F 93% 30.00 in 7.0 mi NW 18.4 mph 25.3 mph 0.00 in   Overcast
12:53 PM 62.1 °F - 55.9 °F 80% 30.01 in 10.0 mi NW 20.7 mph 25.3 mph N/A   Overcast
1:28 PM 62.6 °F - 51.8 °F 68% 30.02 in 10.0 mi NW 18.4 mph 27.6 mph N/A   Mostly Cloudy
1:53 PM 66.0 °F - 51.1 °F 59% 30.03 in 10.0 mi NW 20.7 mph 28.8 mph N/A   Mostly Cloudy
2:53 PM 66.0 °F - 45.0 °F 47% 30.01 in 10.0 mi NNW 15.0 mph - N/A   Mostly Cloudy
3:53 PM 69.1 °F - 37.0 °F 31% 30.01 in 10.0 mi NW 13.8 mph 24.2 mph N/A   Mostly Cloudy
4:53 PM 69.1 °F - 36.0 °F 30% 30.02 in 10.0 mi NNW 12.7 mph 20.7 mph N/A   Mostly Cloudy
5:53 PM 66.0 °F - 35.1 °F 32% 30.06 in 10.0 mi NNW 10.4 mph - N/A   Mostly Cloudy
6:53 PM 63.0 °F - 37.9 °F 40% 30.09 in 10.0 mi NNW 5.8 mph - N/A   Mostly Cloudy
7:53 PM 61.0 °F - 39.0 °F 44% 30.13 in 10.0 mi NNW 8.1 mph - N/A   Mostly Cloudy
8:53 PM 55.9 °F - 41.0 °F 57% 30.16 in 10.0 mi NW 4.6 mph - N/A   Partly Cloudy
9:53 PM 59.0 °F - 33.1 °F 38% 30.18 in 10.0 mi North 8.1 mph - N/A   Clear
10:53 PM 54.0 °F - 35.1 °F 49% 30.19 in 10.0 mi NNW 8.1 mph - N/A   Clear
11:53 PM 55.0 °F - 34.0 °F 45% 30.20 in 10.0 mi NNW 10.4 mph - N/A   Partly Cloudy